Location: Lecco
(45.8566°N, 9.3977°E)
Time: 06:44:39
(UTC+01:00)

Envisat - Pass Details

Date: 26 October 2019
Orbit: 764 x 766 km, 98.1° (Epoch: 12 November)

Event Time Altitude Azimuth Distance (km) Brightness Sun altitude
Rises 19:06:27 0° 158° (SSE) 3,219 6.1 -9.0°
Reaches altitude 10° 19:08:45 10° 157° (SSE) 2,297 5.3 -9.3°
Maximum altitude 19:13:47 72° 74° (ENE) 809 2.9 -10.2°
Drops below altitude 10° 19:18:52 10° 351° (N) 2,313 5.5 -11.1°
Sets 19:21:11 0° 349° (N) 3,243 6.3 -11.5°
